User: anonymous   Login
Location: Cincinnati Observatory Center
(39.1389°N, 84.4225°W)
Time: 03:37:50
(UTC-04:00)
Language:

Hubble Space Telescope - Orbit

View from above orbital plane
View from above orbital plane
View from above satellite
View from above satellite

Ground track
Ground track

The orbit data is extracted from the following two-line orbital elements,

1 20580U 90037B   15239.74572519  .00001256  00000-0  69025-4 0  9994
2 20580 028.4707 042.1735 0002697 287.6245 197.2641 15.07643845190626
Epoch (UTC): 27 August 2015 17:53:50
Eccentricity: 0.0002697
inclination: 28.4707°
perigee height: 541 km
apogee height: 545 km
right ascension of ascending node: 42.1735°
argument of perigee: 287.6245°
revolutions per day: 15.07643845
mean anomaly at epoch: 197.2641°
orbit number at epoch: 19062

The dashed part of the orbit path shows where the satellite is in the earth's shadow,  

DLR